Weather History for KLCI - February, 2012

Change the Weather History Date:

Wednesday, February 29, 2012

  Actual Average Record
Temperature  
Mean Temperature 26 °F -  
Max Temperature 30 °F - 51 °F (1996)
Min Temperature 21 °F - -9 °F (2008)
Degree Days  
Heating Degree Days 40    
Moisture  
Dew Point 18 °F    
Average Humidity 68    
Maximum Humidity 86    
Minimum Humidity 55    
Precipitation  
Precipitation 0.00 in - - ()
Sea Level Pressure  
Sea Level Pressure 30.24 in    
Wind  
Wind Speed 3 mph (WSW)    
Max Wind Speed 13 mph    
Max Gust Speed 18 mph    
Visibility 10 miles    
Events      
Averages and records for this station are not official NWS values.
T = Trace of Precipitation, MM = Missing Value Source: NWS Daily Summary

Daily Weather History Graph

Daily Weather History Graph

Search for Another Location

Airport or City:

Trip Planner

Search our weather history database for the weather conditions in past years. The results will help you decide how hot, cold, wet, or windy it might be!

Date:

Astronomy

Feb. 29, 2012 Rise Set
Actual Time 6:23 AM EST 5:33 PM EST
Civil Twilight 5:54 AM EST 6:02 PM EST
Nautical Twilight 5:21 AM EST 6:35 PM EST
Astronomical Twilight 4:48 AM EST 7:09 PM EST
Moon 9:57 AM EST (2/29) 12:32 AM EST (2/29)
Length of Visible Light 12h 08m
Length of Day
11h 10m
Waxing Crescent, 47% of the Moon is Illuminated
Feb 29
Waxing Crescent
Feb 29
First Quarter
Mar 8
Full
Mar 14
Last Quarter
Mar 22
New

Hourly Weather History & Observations

Time (EST) Temp. Windchill Dew Point Humidity Pressure Visibility Wind Dir Wind Speed Gust Speed Precip Events Conditions
12:15 AM 23.0 °F 18.4 °F 12.2 °F 63% 30.36 in 10.0 mi WSW 3.5 mph - N/A   Scattered Clouds
12:35 AM 21.2 °F - 12.2 °F 68% 30.35 in 10.0 mi Calm Calm - N/A   Mostly Cloudy
12:55 AM 23.0 °F - 12.2 °F 63% 30.35 in 10.0 mi Calm Calm - N/A   Overcast
1:35 AM 23.0 °F - 14.0 °F 68% 30.35 in 10.0 mi Calm Calm - N/A   Overcast
1:55 AM 23.0 °F 18.4 °F 15.8 °F 74% 30.35 in 10.0 mi SW 3.5 mph - N/A   Overcast
2:15 AM 24.8 °F - 15.8 °F 69% 30.35 in 10.0 mi Calm Calm - N/A   Overcast
2:35 AM 24.8 °F - 14.0 °F 64% 30.34 in 10.0 mi Calm Calm - N/A   Overcast
2:55 AM 24.8 °F 20.5 °F 15.8 °F 69% 30.34 in 10.0 mi West 3.5 mph - N/A   Overcast
3:15 AM 24.8 °F 19.1 °F 14.0 °F 64% 30.33 in 10.0 mi West 4.6 mph - N/A   Overcast
3:35 AM 24.8 °F 20.5 °F 15.8 °F 69% 30.33 in 10.0 mi WSW 3.5 mph - N/A   Overcast
4:15 AM 24.8 °F - 15.8 °F 69% 30.33 in 10.0 mi Calm Calm - N/A   Overcast
4:35 AM 24.8 °F - 14.0 °F 64% 30.32 in 10.0 mi Calm Calm - N/A   Overcast
4:55 AM 24.8 °F 20.5 °F 14.0 °F 64% 30.33 in 10.0 mi WSW 3.5 mph - N/A   Overcast
5:15 AM 24.8 °F 19.1 °F 15.8 °F 69% 30.33 in 10.0 mi WSW 4.6 mph - N/A   Overcast
5:35 AM 24.8 °F - 15.8 °F 69% 30.32 in 10.0 mi Calm Calm - N/A   Overcast
5:55 AM 24.8 °F - 15.8 °F 69% 30.32 in 10.0 mi Calm Calm - N/A   Overcast
6:35 AM 24.8 °F - 14.0 °F 64% 30.33 in 10.0 mi Calm Calm - N/A   Overcast
6:55 AM 24.8 °F - 15.8 °F 69% 30.32 in 10.0 mi Calm Calm - N/A   Overcast
7:15 AM 24.8 °F - 15.8 °F 69% 30.31 in 10.0 mi Calm Calm - N/A   Overcast
7:35 AM 24.8 °F 20.5 °F 15.8 °F 69% 30.32 in 10.0 mi WSW 3.5 mph - N/A   Overcast
7:55 AM 26.6 °F - 14.0 °F 59% 30.32 in 10.0 mi Calm Calm - N/A   Overcast
8:15 AM 26.6 °F 21.2 °F 12.2 °F 55% 30.31 in 10.0 mi SW 4.6 mph - N/A   Overcast
8:35 AM 26.6 °F 22.6 °F 12.2 °F 55% 30.31 in 10.0 mi West 3.5 mph - N/A   Overcast
9:15 AM 26.6 °F 21.2 °F 12.2 °F 55% 30.32 in 10.0 mi WSW 4.6 mph - N/A   Overcast
9:35 AM 26.6 °F - 12.2 °F 55% 30.32 in 10.0 mi Calm Calm - N/A   Overcast
9:55 AM 26.6 °F - 14.0 °F 59% 30.30 in 10.0 mi Calm Calm - N/A   Overcast
10:15 AM 28.4 °F 23.3 °F 14.0 °F 55% 30.30 in 10.0 mi SW 4.6 mph - N/A   Overcast
10:55 AM 28.4 °F 23.3 °F 15.8 °F 59% 30.30 in 10.0 mi SW 4.6 mph - N/A   Overcast
11:15 AM 28.4 °F - 15.8 °F 59% 30.29 in 10.0 mi Calm Calm - N/A   Overcast
11:35 AM 28.4 °F 24.6 °F 17.6 °F 64% 30.29 in 9.0 mi WSW 3.5 mph - N/A   Overcast
11:55 AM 28.4 °F 23.3 °F 17.6 °F 64% 30.27 in 9.0 mi WSW 4.6 mph - N/A   Overcast
12:35 PM 28.4 °F 24.6 °F 19.4 °F 69% 30.25 in 10.0 mi West 3.5 mph - N/A   Mostly Cloudy
12:55 PM 28.4 °F - 19.4 °F 69% 30.24 in 10.0 mi Calm Calm - N/A   Overcast
1:15 PM 28.4 °F 23.3 °F 19.4 °F 69% 30.23 in 10.0 mi West 4.6 mph - N/A   Overcast
1:35 PM 30.2 °F 23.4 °F 19.4 °F 64% 30.22 in 10.0 mi SW 6.9 mph - N/A   Overcast
1:55 PM 30.2 °F 26.7 °F 21.2 °F 69% 30.21 in 10.0 mi WSW 3.5 mph - N/A   Overcast
2:15 PM 30.2 °F - 21.2 °F 69% 30.19 in 10.0 mi Calm Calm - N/A   Overcast
2:55 PM 28.4 °F 23.3 °F 19.4 °F 69% 30.17 in 10.0 mi ENE 4.6 mph - N/A   Mostly Cloudy
3:15 PM 28.4 °F - 19.4 °F 69% 30.17 in 10.0 mi Calm Calm - N/A   Mostly Cloudy
3:35 PM 30.2 °F - 19.4 °F 64% 30.17 in 10.0 mi Calm Calm - N/A   Overcast
3:55 PM 30.2 °F 25.4 °F 19.4 °F 64% 30.16 in 10.0 mi SW 4.6 mph - N/A   Overcast
4:15 PM 30.2 °F - 23.0 °F 75% 30.15 in 10.0 mi Calm Calm - N/A   Overcast
4:35 PM 30.2 °F - 21.2 °F 69% 30.14 in 10.0 mi Calm Calm - N/A   Overcast
4:55 PM 30.2 °F 26.7 °F 21.2 °F 69% 30.13 in 10.0 mi NNE 3.5 mph - N/A   Overcast
5:15 PM 30.2 °F 25.4 °F 21.2 °F 69% 30.13 in 10.0 mi NNE 4.6 mph - N/A   Overcast
5:55 PM 30.2 °F 24.3 °F 23.0 °F 75% 30.12 in 10.0 mi ENE 5.8 mph - N/A   Overcast
6:15 PM 30.2 °F 24.3 °F 23.0 °F 75% 30.11 in 10.0 mi ENE 5.8 mph - N/A   Overcast
6:35 PM 30.2 °F 23.4 °F 23.0 °F 75% 30.10 in 10.0 mi East 6.9 mph - N/A   Overcast
6:55 PM 30.2 °F 22.6 °F 23.0 °F 75% 30.09 in 10.0 mi ENE 8.1 mph - N/A   Overcast
7:15 PM 28.4 °F 20.4 °F 23.0 °F 80% 30.08 in 10.0 mi ENE 8.1 mph - N/A   Overcast
7:35 PM 28.4 °F 19.7 °F 23.0 °F 80% 30.08 in 10.0 mi ENE 9.2 mph - N/A   Overcast
7:55 PM 28.4 °F 19.1 °F 23.0 °F 80% 30.08 in 10.0 mi ENE 10.4 mph - N/A   Overcast
8:15 PM 28.4 °F 21.2 °F 23.0 °F 80% 30.08 in 10.0 mi ENE 6.9 mph - N/A   Overcast
9:15 PM 28.4 °F 18.0 °F 21.2 °F 74% 30.06 in 3.0 mi ENE 12.7 mph 18.4 mph N/A   Overcast
9:35 PM 28.4 °F 18.5 °F 23.0 °F 80% 30.04 in 2.5 mi ENE 11.5 mph - N/A   Overcast
9:55 PM 28.4 °F 20.4 °F 24.8 °F 86% 30.04 in 2.5 mi NE 8.1 mph 17.3 mph N/A   Overcast
10:15 PM 28.4 °F 19.7 °F 24.8 °F 86% 30.01 in 3.0 mi NE 9.2 mph - N/A   Overcast
10:35 PM 28.4 °F 19.7 °F 24.8 °F 86% 30.01 in 2.5 mi NE 9.2 mph - N/A   Overcast
11:35 PM 28.4 °F 18.5 °F 24.8 °F 86% 29.99 in 2.0 mi ENE 11.5 mph - N/A   Overcast
11:55 PM 28.4 °F 20.4 °F 24.8 °F 86% 29.99 in 1.2 mi ENE 8.1 mph - N/A   Overcast